This is the latest recevied weather packets stored in our database for station/object LZ1NAG-10. If no packets are shown the sender has not sent any weather packets the latest 1 day(s).
| Time | Temp. | Humidity | Pressure | Rain* | Wind** | Luminosity | Snow |
|---|---|---|---|---|---|---|---|
| 1777843951 | -0.56° C | 55% | 1024 hPa | - | - | - | - |
| 1777843051 | 0° C | 55% | 1024 hPa | - | - | - | - |
| 1777842151 | 0° C | 55% | 1024 hPa | - | - | - | - |
| 1777841250 | 0° C | 55% | 1024 hPa | - | - | - | - |
| 1777840350 | 0° C | 55% | 1024.1 hPa | - | - | - | - |
| 1777839450 | 0° C | 55% | 1024 hPa | - | - | - | - |
| 1777838550 | 0° C | 55% | 1024.1 hPa | - | - | - | - |
| 1777837650 | 0° C | 55% | 1024.2 hPa | - | - | - | - |
| 1777836750 | 0.56° C | 55% | 1024.2 hPa | - | - | - | - |
| 1777835849 | 0.56° C | 55% | 1024.1 hPa | - | - | - | - |
| 1777834949 | 1.11° C | 55% | 1024.1 hPa | - | - | - | - |
| 1777834049 | 1.11° C | 55% | 1024 hPa | - | - | - | - |
| 1777833149 | 1.67° C | 55% | 1024.1 hPa | - | - | - | - |
| 1777832249 | 2.22° C | 55% | 1024 hPa | - | - | - | - |
| 1777831349 | 3.33° C | 55% | 1023.9 hPa | - | - | - | - |
| 1777830449 | 3.89° C | 55% | 1023.8 hPa | - | - | - | - |
| 1777829548 | 4.44° C | 54% | 1023.6 hPa | - | - | - | - |
| 1777828648 | 5° C | 55% | 1023.6 hPa | - | - | - | - |
| 1777827748 | 5.56° C | 55% | 1023.5 hPa | - | - | - | - |
| 1777826848 | 5.56° C | 54% | 1023.7 hPa | - | - | - | - |
| 1777825948 | 6.11° C | 55% | 1023.5 hPa | - | - | - | - |
| 1777825047 | 6.67° C | 54% | 1023.5 hPa | - | - | - | - |
| 1777824147 | 6.67° C | 54% | 1023.5 hPa | - | - | - | - |
| 1777823247 | 7.22° C | 54% | 1023.4 hPa | - | - | - | - |
| 1777822347 | 7.22° C | 54% | 1023.6 hPa | - | - | - | - |
* Rain since midnight (hover to see other rain measurements)
** Current wind speed in m/s (hover to see current wind gust speed)